Location: Trencin
(48.9000°N, 18.0330°E)
Time: 22:11:33
(UTC+01:00)

ISS - Visible Passes

Search period start: 24 March 2019 00:00
Search period end: 03 April 2019 01:00
Orbit: 408 x 411 km, 51.6° (Epoch: 24 March)

Date Brightness Start Highest point End Pass type
(mag) Time Alt. Az. Time Alt. Az. Time Alt. Az.
24 Mar -3.9 19:32:37 10° WSW 19:35:53 66° SSE 19:37:09 34° E visible
24 Mar -0.8 21:09:20 10° W 21:09:56 14° W 21:09:56 14° W visible
25 Mar -3.3 18:42:09 10° SW 18:45:18 43° SSE 18:48:28 10° ENE visible
25 Mar -3.3 20:18:34 10° W 20:21:38 58° NW 20:21:38 58° NW visible
26 Mar -3.7 19:27:51 10° WSW 19:31:09 76° NNW 19:33:13 21° ENE visible
26 Mar -1.2 21:04:43 10° WNW 21:05:59 20° WNW 21:05:59 20° WNW visible
27 Mar -3.8 18:37:09 10° WSW 18:40:28 80° SSE 18:43:46 10° ENE visible
27 Mar -3.2 20:13:58 10° W 20:17:12 50° N 20:17:27 49° NNE visible
28 Mar -3.3 19:23:10 10° W 19:26:26 55° N 19:28:52 16° ENE visible
28 Mar -1.6 21:00:01 10° WNW 21:01:37 26° WNW 21:01:37 26° WNW visible
29 Mar -3.3 20:09:16 10° WNW 20:12:31 52° N 20:12:58 48° NE visible
30 Mar -3.1 19:18:29 10° WNW 19:21:44 50° N 19:24:16 15° ENE visible
30 Mar -1.9 20:55:11 10° WNW 20:57:01 30° WNW 20:57:01 30° WNW visible
31 Mar -3.7 21:04:27 10° WNW 21:07:45 67° NNE 21:08:18 54° ENE visible
01 Apr -3.4 20:13:41 10° WNW 20:16:57 56° N 20:19:35 15° E visible
01 Apr -2.1 21:50:20 10° WNW 21:52:20 31° W 21:52:20 31° W visible
02 Apr -3.9 20:59:33 10° WNW 21:02:52 78° SSW 21:03:36 50° SE visible
